TIME,DELAY(SENSOR),PRES,OXYGEN,RAWTEMP,T(OPTODE),TCPHASE,FLUOR,BETA(BETA700),BETA(BETA412),BETA(BETA440),CDOM,C(CSC),ED(ED412.20),ED(ED444.00),ED(ED489.60),ED(ED554.30),LU(LU412.10),LU(LU443.90),LU(LU489.70),LU(LU554.70),COMP,TILTX,TILTY,CHECK
1352516704,5809,916.8300170898438000,29.8017005920410160,560.4666748046875000,4.4714322090148930,57.1372985839843750,54,98,99,78,83,15553,0,0,0,0,2147119762,2147777005,2147580635,2147566948,2019,3,13,10939
1352520300,5811,975.1500244140625000,36.6629409790039060,568.1190795898438000,4.2339949607849120,56.0990486145019500,55,99,100,79,82,15555,0,0,0,0,2147121526,2147777362,2147577115,2147568420,108,3,13,17950
1352523900,5807,985.5999755859375000,37.9328002929687500,569.8201293945312000,4.1811499595642090,55.9267692565918000,56,98,100,78,83,15552,0,0,0,0,2147120978,2147777929,2147575561,2147570806,350,3,13,28220
1352527500,5809,995.2000122070312000,37.3893585205078100,569.8666992187500000,4.1797032356262210,56.0107383728027340,56,98,99,79,83,15552,0,0,0,0,2147122742,2147776365,2147575542,2147568301,107,3,13,41262
1352531100,5809,994.7299804687500000,37.5842590332031250,570.4840698242188000,4.1605172157287600,55.9889907836914060,56,106,101,78,83,15553,0,0,0,0,2147124443,2147771273,2147576539,2147572553,182,3,13,13237
1352534700,5809,997.5999755859375000,38.2746505737304700,570.9707031250000000,4.1453909873962400,55.8857002258300800,55,97,100,78,82,15547,0,0,0,0,2147122422,2147778578,2147577700,2147569362,148,3,13,11286
1352538300,5809,998.5999755859375000,38.2029800415039060,571.1115112304688000,4.1410160064697270,55.8979911804199200,55,100,100,78,82,15546,0,0,0,0,2147121664,2147778916,2147576182,2147570029,158,3,13,6495
1352541900,5809,996.2100219726562000,37.8172988891601560,571.6389770507812000,4.1246170997619630,55.9619789123535160,54,100,101,78,84,15548,0,0,0,0,2147123181,2147778203,2147576310,2147565321,3319,3,13,51880
1352545500,5810,996.6500244140625000,38.9392890930175800,572.0009155273438000,4.1133627891540530,55.7943191528320300,56,98,100,77,83,15547,0,0,0,0,2147125586,2147771099,2147575963,2147568722,3479,3,13,16078
1352549100,5807,997.5200195312500000,39.2396316528320300,571.8543701171875000,4.1179218292236330,55.7517509460449200,55,98,99,78,84,15547,0,0,0,0,2147125001,2147777984,2147577600,2147567716,334,3,13,13825
1352552700,5809,998.0599975585938000,39.1373901367187500,571.8546142578125000,4.1179161071777340,55.7638282775878900,56,99,100,78,84,15547,0,0,0,0,2147123812,2147782107,2147580992,2147566966,133,3,13,16583
1352556300,5812,1001.6400146484375000,38.9379310607910160,571.7902221679688000,4.1199169158935550,55.7957496643066400,56,97,100,77,83,15544,0,0,0,0,2147120612,2147774902,2147579318,2147571154,3557,3,13,18526
1352559900,5809,1003.9400024414062000,37.9887390136718750,571.2028808593750000,4.1381721496582030,55.9349708557128900,55,97,99,78,83,15546,0,0,0,0,2147119990,2147774134,2147576502,2147567296,3247,3,13,31362
1352563500,5808,1005.3699951171875000,38.8090896606445300,571.1514892578125000,4.1397719383239750,55.8083305358886700,55,97,100,79,82,15546,0,0,0,0,2147119378,2147778624,2147575936,2147567085,3200,3,13,50279
1352567100,5809,1004.4299926757812000,38.7839508056640600,571.1314697265625000,4.1403918266296390,55.8129386901855500,54,99,101,78,82,15546,0,0,0,0,2147123739,2147774125,2147576036,2147568740,3506,3,13,29773
1352570700,5807,1005.8400268554688000,38.6745414733886700,571.1734008789062000,4.1390910148620605,55.8258705139160160,55,97,99,77,83,15545,0,0,0,0,2147119936,2147776182,2147580580,2147569828,3474,3,13,7542
1352574300,5811,1000.5599975585938000,38.9382514953613300,572.0687255859375000,4.1112580299377440,55.7988586425781250,55,97,100,77,83,15546,0,0,0,0,2147118217,2147776978,2147578916,2147568786,378,3,13,3235
1352577900,5809,1001.5300292968750000,39.6531906127929700,572.5147094726562000,4.0973892211914060,55.6951103210449200,55,97,100,78,82,15545,0,0,0,0,2147122112,2147770048,2147576795,2147569133,3551,3,13,38146
1352581500,5809,999.9000244140625000,39.7841796875000000,572.6995849609375000,4.0916390419006350,55.6739501953125000,55,99,99,78,82,15544,0,0,0,0,2147120804,2147782198,2147577435,2147571712,226,3,13,23726
1352585100,5812,1002.9299926757812000,39.1046409606933600,572.5571289062500000,4.0960707664489750,55.7750282287597660,55,99,99,77,82,15545,0,0,0,0,2147122715,2147773202,2147577060,2147568658,7,3,13,49782
1352588700,5810,1004.3499755859375000,39.4524192810058600,572.6436767578125000,4.0933761596679690,55.7274818420410160,56,98,99,78,83,15544,0,0,0,0,2147122797,2147776000,2147572909,2147567012,3347,3,13,9147
1352592300,5808,1007.1099853515625000,39.3698997497558600,572.1765747070312000,4.1079030036926270,55.7366714477539060,55,98,100,79,81,15544,0,0,0,0,2147122788,2147773156,2147572644,2147571510,236,3,13,53316
1352595900,5808,1007.7100219726562000,38.4715499877929700,571.6019897460938000,4.1257672309875490,55.8643989562988300,55,101,101,78,82,15541,0,0,0,0,2147121664,2147773220,2147581257,2147570496,642,3,13,55489
1352599500,5809,1004.7000122070312000,38.4916381835937500,571.8447875976562000,4.1182169914245605,55.8638801574707000,55,99,100,78,83,15543,0,0,0,0,2147124205,2147770870,2147576064,2147571968,3507,3,13,41272
1352603100,5808,1012.6099853515625000,38.7644500732421900,572.1884765625000000,4.1075329780578610,55.8210105895996100,55,98,101,78,81,15540,0,0,0,0,2147121133,2147772553,2147575634,2147569270,150,3,13,26389
1352606700,5809,1022.5999755859375000,37.8687591552734400,571.3253173828125000,4.1343708038330080,55.9530601501464840,54,99,100,77,84,15542,0,0,0,0,2147120603,2147770587,2147576365,2147570907,227,3,13,36156
1352610300,5809,1014.2199707031250000,37.2462387084960940,571.4387207031250000,4.1308441162109375,56.0505714416503900,55,100,100,78,83,15543,0,0,0,0,2147119350,2147773174,2147577088,2147569380,259,3,13,5452
1352613900,5809,1005.9400024414062000,37.2632598876953100,571.9746704101562000,4.1141800880432130,56.0479888916015600,54,98,100,78,83,15540,0,0,0,0,2147120054,2147775003,2147578422,2147569069,559,3,13,9666
1352617500,5810,1008.5399780273438000,38.3200607299804700,572.0714111328125000,4.1111760139465330,55.8876304626464840,54,100,101,78,83,15543,0,0,0,0,2147121005,2147770633,2147579995,2147567945,131,3,13,60135
1352621100,5809,1010.7199707031250000,37.8941802978515600,571.9913940429688000,4.1136608123779300,55.9583091735839840,55,98,101,79,82,15526,0,0,0,0,2147123492,2147779446,2147579181,2147570386,249,3,13,13066
1352624700,5809,1010.5200195312500000,37.8548011779785160,571.9833984375000000,4.1139087677001950,55.9628906250000000,55,97,100,78,82,15525,0,0,0,0,2147120868,2147780882,2147578102,2147569709,296,3,13,44158
1352628300,5810,1011.7100219726562000,37.8783607482910160,571.8333740234375000,4.1185722351074220,55.9559707641601560,54,101,101,78,83,15527,0,0,0,0,2147126656,2147772626,2147577947,2147572370,362,3,13,54021
1352631900,5811,1010.1199951171875000,37.8011093139648440,571.9976196289062000,4.1134681701660160,55.9682083129882800,54,104,100,78,82,15528,0,0,0,0,2147122075,2147773915,2147573723,2147568804,359,3,13,14645
1352635500,5811,1004.5399780273438000,39.3237686157226560,572.6790771484375000,4.0922760963439940,55.7495117187500000,54,97,100,77,82,15527,0,0,0,0,2147123666,2147777069,2147576640,2147568722,3417,3,13,61010
1352639100,5813,1007.2399902343750000,39.1443710327148440,572.7041015625000000,4.0914988517761230,55.7707290649414060,55,99,100,77,83,15523,0,0,0,0,2147122523,2147776429,2147576283,2147567661,3492,3,13,34618
1352642700,5809,1007.6099853515625000,39.1495208740234400,572.9041137695312000,4.0852789878845215,55.7724800109863300,55,100,100,79,84,15521,0,0,0,0,2147122898,2147775661,2147575616,2147569188,462,3,13,4363
1352646300,5812,1012.2999877929688000,39.1445503234863300,571.9467773437500000,4.1150460243225100,55.7643508911132800,55,97,100,78,83,15507,0,0,0,0,2147122304,2147777718,2147579108,2147568301,3335,3,13,58391
1352649900,5808,1010.1900024414062000,39.2272987365722660,572.3687133789062000,4.1019291877746580,55.7536506652832000,55,99,100,78,84,15517,0,0,0,0,2147121563,2147775094,2147579072,2147567552,2921,3,13,5109
1352653500,5810,1012.0300292968750000,39.3825683593750000,572.6842041015625000,4.0921168327331540,55.7386589050293000,55,99,100,78,82,15523,0,0,0,0,2147121426,2147774226,2147578980,2147570605,3543,3,13,32799
1352657100,5809,1004.2299804687500000,38.9246711730957000,572.6915893554688000,4.0918879508972170,55.8057098388671900,55,99,100,78,81,15523,0,0,0,0,2147121508,2147778057,2147577014,2147568877,209,3,13,32098
1352660700,5808,1007.6599731445312000,39.3075485229492200,572.6610717773438000,4.0928339958190920,55.7445907592773440,55,98,100,77,83,15521,0,0,0,0,2147121920,2147772653,2147579986,2147570669,3208,3,13,28623
1352661956,5808,1011.5800170898438000,39.7496910095214840,572.4530029296875000,4.0993080139160160,55.6782417297363300,54,98,99,78,83,15524,0,0,0,0,2147121755,2147776393,2147579958,2147570221,3593,3,13,15732
